Location: Unspecified
(51.5147°N, 7.4673°E)
Time: 04:18:28
(UTC+01:00)

A-11 Canister half - Pass Details

Date: 25 February 2026
Orbit: 1512 x 1687 km, 47.2° (Epoch: 7 March)

Event Time Altitude Azimuth Distance (km) Brightness Sun altitude
Rises 18:45:53 0° 211° (SSW) 4,920 12.2 -7.4°
Reaches altitude 10° 18:49:23 10° 203° (SSW) 3,941 11.5 -7.9°
Maximum altitude 18:58:14 36° 142° (SE) 2,449 9.8 -9.3°
Enters shadow 19:06:23 12° 83° (E) 3,750 10.4 -10.6°
Drops below altitude 10° 19:07:02 10° 81° (E) 3,923 - -10.7°
Sets 19:10:29 0° 73° (ENE) 4,895 - -11.2°
